Regional Weather Roundup
Issued by NWS Little Rock, AR

Home | Current Version | Previous Version | Graphics & Text | Print | Product List | Glossary On
Versions: 1 2 3 4 5 6 7 8 9 10 11 12 13 14 15 16 17 18 19 20 21 22 23 24 25 26 27 28 29 30 31 32 33 34 35 36 37 38 39 40 41 42 43 44 45 46 47 48 49 50
000
ASUS44 KLZK 020005
RWRLZK

WEATHER ROUNDUP FOR ARKANSAS
NATIONAL WEATHER SERVICE LITTLE ROCK AR
700 PM CDT WED JUL 01 2015

NOTE: "FAIR" INDICATES FEW OR NO CLOUDS BELOW 12,000 FEET WITH NO
SIGNIFICANT WEATHER AND/OR OBSTRUCTIONS TO VISIBILITY.

ARZ001-003-010-029-020100-
NORTHWEST ARKANSAS

CITY           SKY/WX    TMP DP  RH WIND       PRES   REMARKS
FAYETTEVILLE   PTSUNNY   83  72  69 SW9       29.91F HX  88
6HR MIN TEMP:  83; 6HR MAX TEMP:  87;

FORT SMITH     SUNNY     91  67  44 S13G22    29.88R HX  94
6HR MIN TEMP:  89; 6HR MAX TEMP:  94;

HARRISON       CLOUDY    81  74  79 S6        29.89F HX  86
6HR MIN TEMP:  77; 6HR MAX TEMP:  86; 6HR PCP:  0.01;

BENTONVILLE    CLOUDY    84  70  61 SW10      29.89F HX  88
6HR MIN TEMP:  84; 6HR MAX TEMP:  90;

ROGERS         CLOUDY    84  72  67 SW15G21   29.89F HX  89
6HR MIN TEMP:  84; 6HR MAX TEMP:  91; 6HR PCP: TRACE;

SILOAM SPGS    CLOUDY    84  70  61 S10       29.90F HX  88
6HR MIN TEMP:  84; 6HR MAX TEMP:  91;

HIGHFILL       CLOUDY    84  74  71 S10       29.88F HX  91
6HR MIN TEMP:  84; 6HR MAX TEMP:  91;

SPRINGDALE     PTSUNNY   86  72  62 SW14G21   29.92F HX  92
$$

ARZ004-005-016-020100-
NORTH CENTRAL ARKANSAS

CITY           SKY/WX    TMP DP  RH WIND       PRES   REMARKS
BATESVILLE     CLOUDY    82  73  74 S8        29.88S HX  88
6HR MIN TEMP:  82; 6HR MAX TEMP:  88;

FLIPPIN          N/A     82  72  69 SW3       29.85F HX  87
6HR MIN TEMP:  77; 6HR MAX TEMP:  90;

MTN HOME       PTSUNNY   80  73  79 S6        29.87F
6HR MIN TEMP:  75; 6HR MAX TEMP:  84;

$$

ARZ040-041-020100-
WEST CENTRAL ARKANSAS

CITY           SKY/WX    TMP DP  RH WIND       PRES   REMARKS
MENA           MOSUNNY   90  72  55 S5        29.97S HX  96
MOUNT IDA      MOSUNNY   86  71  60 VRB5      29.94R HX  91
6HR MIN TEMP:  86; 6HR MAX TEMP:  89;

$$

ARZ009-017-025-026-028-020100-
NORTHEAST ARKANSAS

CITY           SKY/WX    TMP DP  RH WIND       PRES   REMARKS
JONESBORO      PTSUNNY   85  74  69 S10       29.87F HX  92
6HR MIN TEMP:  80; 6HR MAX TEMP:  87;

NEWPORT        PTSUNNY   86  73  64 SW15G29   29.89S HX  93
6HR MIN TEMP:  82; 6HR MAX TEMP:  92;

WALNUT RIDGE   PTSUNNY   84  72  65 S12       29.86S HX  89
6HR MIN TEMP:  77; 6HR MAX TEMP:  88;

BLYTHEVILLE    PTSUNNY   85  74  69 S9        29.91R HX  92
6HR MIN TEMP:  80; 6HR MAX TEMP:  87;

$$

ARZ022-023-033-042-044-020100-
CENTRAL ARKANSAS

CITY           SKY/WX    TMP DP  RH WIND       PRES   REMARKS
LITTLE ROCK    PTSUNNY   87  70  56 SW14G20   29.92S HX  92
6HR MIN TEMP:  86; 6HR MAX TEMP:  91;

N LITTLE ROCK  PTSUNNY   87  75  66 SW9G16    29.92S HX  97
6HR MIN TEMP:  85; 6HR MAX TEMP:  89;

JACKSONVILLE   PTSUNNY   88  72  59 S10       29.91S HX  95
6HR MIN TEMP:  87; 6HR MAX TEMP:  91;

SEARCY         PTSUNNY   84  75  74 S9        29.91F HX  92
6HR MIN TEMP:  83; 6HR MAX TEMP:  90;

HOT SPRINGS    SUNNY     87  71  58 SW10      29.95S HX  93
6HR MIN TEMP:  86; 6HR MAX TEMP:  90;

RUSSELLVILLE   MOSUNNY   88  72  58 VRB6      29.89S HX  94
6HR MIN TEMP:  87; 6HR MAX TEMP:  92;

$$

ARZ036-020100-
EAST ARKANSAS

CITY           SKY/WX    TMP DP  RH WIND       PRES   REMARKS
WEST MEMPHIS   MOSUNNY   85  75  72 SW12      29.91R HX  93
6HR MIN TEMP:  82; 6HR MAX TEMP:  87;

$$

ARZ050-053-066-070-073-020100-
SOUTHWEST ARKANSAS

CITY           SKY/WX    TMP DP  RH WIND       PRES   REMARKS
ARKADELPHIA    FAIR      90  74  59 S8        29.95S HX  99
6HR MIN TEMP:  89; 6HR MAX TEMP:  92;

CAMDEN         SUNNY     90  72  55 MISG      29.96S HX  96
TEXARKANA      MOSUNNY   89  72  56 S14       29.96R HX  96
6HR MIN TEMP:  87; 6HR MAX TEMP:  91;

EL DORADO      SUNNY     86  74  67 S6        29.99R HX  94
6HR MIN TEMP:  86; 6HR MAX TEMP:  90;

DE QUEEN       SUNNY     88  72  58 SW7       29.92S HX  94
6HR MIN TEMP:  87; 6HR MAX TEMP:  91;

$$

ARZ056-057-069-020100-
SOUTHEAST ARKANSAS

CITY           SKY/WX    TMP DP  RH WIND       PRES   REMARKS
PINE BLUFF     PTSUNNY   88  73  61 SW10      29.95R HX  95
6HR MIN TEMP:  86; 6HR MAX TEMP:  90;

STUTTGART      CLOUDY    88  73  62 MISG      29.93R HX  96
6HR MIN TEMP:  88; 6HR MAX TEMP:  91;

MONTICELLO     MOSUNNY   87  73  62 SW8       29.98R HX  94
6HR MIN TEMP:  87; 6HR MAX TEMP:  90;


$$





USA.gov is the U.S. government's official web portal to all federal, state and local government web resources and services.